Regional Weather Roundup
Issued by NWS Northern Indiana

Home | Current Version | Previous Version | Graphics & Text | Print | Product List | Glossary On
Versions: 1 2 3 4 5 6 7 8 9 10 11 12 13 14 15 16 17 18 19 20 21 22 23 24 25 26 27 28 29 30 31 32 33 34 35 36 37 38 39 40 41 42 43 44 45 46 47 48 49 50
668
ASUS43 KIWX 200309
RWRIWX

KIWX WEATHER ROUNDUP
NATIONAL WEATHER SERVICE NORTHERN INDIANA
1100 PM EDT THU APR 19 2018

NOTE: "FAIR" INDICATES FEW OR NO CLOUDS BELOW 12,000 FEET WITH NO
SIGNIFICANT WEATHER AND/OR OBSTRUCTIONS TO VISIBILITY.

* THESE STATIONS ARE NOT UNDER NWS QUALITY CONTROL. THEY ALSO MAY NOT
  REPORT WEATHER SUCH AS PRECIPITATION OR FOG.

INZ001>027-200400-
NORTHERN INDIANA

CITY           SKY/WX    TMP DP  RH WIND       PRES   REMARKS
GARY*          CLEAR     34  30  86 NW5       30.43S WCI  30
VALPARAISO     FAIR      40  23  50 N5        30.40F WCI  37
MICHIGAN CITY* FAIR      37  28  70 N5        30.41S WCI  34
LAPORTE*       FAIR      37  25  60 NW7       30.40S WCI  32
KNOX*          FAIR      32  21  64 W5        30.40S WCI  27
SOUTH BEND     FAIR      32  22  66 N8        30.40R WCI  25
GOSHEN         FAIR      37  21  52 NW13      30.37R WCI  29
MONTICELLO*    FAIR      35  18  51 N8        30.40R WCI  28
LOGANSPORT*    FAIR      36  19  51 NW7       30.39S WCI  30
ROCHESTER*     FAIR      37  21  52 N7        30.39S WCI  32
WARSAW*        FAIR      36  21  55 N7        30.38R WCI  30
ANGOLA*        FAIR      37  27  65 NW9       30.34S WCI  31
FORT WAYNE     FAIR      39  26  59 NW12      30.35R WCI  32
HUNTINGTON*    FAIR      37  23  59 NW5       30.36S WCI  33
PERU/GRISSOM   FAIR      38  18  44 N13       30.37R WCI  30
MARION*        FAIR      37  24  59 CALM      30.37S

$$
INZ028>050-200400-
CENTRAL INDIANA

CITY           SKY/WX    TMP DP  RH WIND       PRES   REMARKS
LAFAYETTE      FAIR      38  19  46 N6        30.41R WCI  33
KOKOMO*        FAIR      37  21  52 N13       30.38S WCI  29
MUNCIE*        FAIR      39  26  59 NW10      30.35R WCI  32
INDIANAPOLIS   FAIR      41  18  39 N14       30.38R

$$
MIZ043>046-050>051-056>058-064>065-071>073-077>080-200400-
SOUTHWEST LOWER MICHIGAN

CITY           SKY/WX    TMP DP  RH WIND       PRES   REMARKS
BATTLE CREEK   FAIR      39  22  50 NW8       30.35S WCI  33
BENTON HARBOR  FAIR      35  27  72 CALM      30.40S
COLDWATER*     FAIR      38  26  61 NW7       30.34S WCI  33
HILLSDALE*     FAIR      37  28  70 NW8       30.32R WCI  31
HOLLAND        FAIR      35  26  69 NW3       30.39S
GRAND RAPIDS   FAIR      40  20  44 NW8       30.37R WCI  34
KALAMAZOO      FAIR      37  21  52 NW10      30.37R WCI  30
STURGIS*       FAIR      37  25  60 N9        30.36R WCI  31
THREE RIVERS*  FAIR      38  24  57 NW9       30.37S WCI  31

$$
OHZ001>008-015>018-024>025-200400-
NORTHWEST OHIO

CITY           SKY/WX    TMP DP  RH WIND       PRES   REMARKS
DEFIANCE       FAIR      40  31  70 NW12      30.32S WCI  33
FINDLAY        FAIR      44  31  60 N13       30.29R
TOLEDO EXPRESS FAIR      43  22  43 N7        30.31R
TOLEDO METCALF FAIR      38  31  76 E6        30.33R WCI  33
LIMA           FAIR      41  32  70 NW14      30.30R

$$
AND FOR LAKE MICHIGAN COASTAL AND OPEN LAKE BUOY OBSERVATIONS

STATION/POSITION TIME  TEMP    WIND        PRES    VSBY  WAVE
                       AIR SEA DIR/SP/G                  HT/PER
                 (UTC) (F)     (DEG/KT/KT) (MB)    (MI)  (FT/S)
CALUMET HARBOR   0242   40     260/  1/  3 1029.4S
MICHIGAN CITY    0240   40     320/  9/  9   N/A
BURNS HARBOR     0240   41     320/  6/  8 1030.1S
SAINT JOSEPH     0300   37      40/  3/  4 1029.5

$$
&&




USA.gov is the U.S. government's official web portal to all federal, state and local government web resources and services.